• Join FlightAware (Why Join?)
  • Login
  • US Flag GB Flag 
09:48 EDT


 

Airport Tracker/Info


-or-


 

Live Flight TrackerFlight Track Log ✈ N75ZM ✈ 16-Oct-2013 ✈ KCHS - KPDK

Flight Track Log - Related Links

Times and Time Zones

All times are in EDT time to prevent confusion due to time zone crossing. See the N75ZM flight status page for this flight to view local times or setup timezone preferences in your user account.

Time Position Orientation Groundspeed Altitude Reporting Facility
EDT Latitude Longitude Course Direction KTS MPH feet Rate Location/Type
12:10 32.9734 -80.3426 295° West  Level Estimated
12:11 32.9947 -80.3886 299° West  Level FlightAware Approximate
12:12 33.0159 -80.4346 299° West  Level FlightAware Approximate
12:13 33.0371 -80.4807 299° West  Level FlightAware Approximate
12:14 33.0583 -80.5268 299° West  Level FlightAware Approximate
12:15 33.0701 -80.5774 295° West  Level Estimated
12:16 33.0897 -80.6245 296° West  Level FlightAware Approximate
12:17 33.1093 -80.6716 296° West  Level FlightAware Approximate
12:18 33.1289 -80.7187 296° West  Level FlightAware Approximate
12:19 33.1485 -80.7658 296° West  Level FlightAware Approximate
12:20 33.1681 -80.8130 296° West  Level FlightAware Approximate
12:21 33.1876 -80.8601 296° West  Level FlightAware Approximate
12:22 33.2071 -80.9073 296° West  Level FlightAware Approximate
12:23 33.2266 -80.9546 296° West  Level FlightAware Approximate
12:24 33.2461 -81.0018 296° West  Level FlightAware Approximate
12:25 33.2656 -81.0491 296° West  Level FlightAware Approximate
12:26 33.2850 -81.0963 296° West  Level FlightAware Approximate
12:27 33.3045 -81.1436 296° West  Level FlightAware Approximate
12:28 33.3239 -81.1910 296° West  Level FlightAware Approximate
12:29 33.3337 -81.2424 295° West  Level Estimated
12:30 33.3530 -81.2897 296° West  Level FlightAware Approximate
12:31 33.3724 -81.3371 296° West  Level FlightAware Approximate
12:32 33.3917 -81.3845 296° West  Level FlightAware Approximate
12:33 33.4110 -81.4320 296° West  Level FlightAware Approximate
12:34 33.4303 -81.4794 296° West  Level FlightAware Approximate
12:35 33.4496 -81.5269 296° West  Level FlightAware Approximate
12:36 33.4688 -81.5744 296° West  Level FlightAware Approximate
12:37 33.4880 -81.6219 296° West  Level FlightAware Approximate
12:38 33.5073 -81.6694 296° West  Level FlightAware Approximate
12:39 33.5265 -81.7170 296° West  Level FlightAware Approximate
12:40 33.5456 -81.7646 296° West  Level FlightAware Approximate
12:41 33.5648 -81.8122 296° West  Level FlightAware Approximate
12:42 33.5839 -81.8598 296° West  Level FlightAware Approximate
12:43 33.6021 -81.9050 296° West  Level FlightAware Approximate
12:44 33.6202 -81.9503 296° West  Level FlightAware Approximate
12:45 33.6384 -81.9956 296° West  Level FlightAware Approximate
12:46 33.6565 -82.0408 296° West  Level FlightAware Approximate
12:47 33.6745 -82.0862 296° West  Level FlightAware Approximate
12:48 33.6926 -82.1315 296° West  Level FlightAware Approximate
12:49 33.7058 -82.1789 284° West  Level FlightAware Approximate
12:50 33.7156 -82.2278 284° West  Level FlightAware Approximate
12:51 33.7255 -82.2767 284° West  Level FlightAware Approximate
12:52 33.7352 -82.3256 284° West  Level FlightAware Approximate
12:53 33.7450 -82.3745 284° West  Level FlightAware Approximate
12:54 33.7548 -82.4234 283° West  Level FlightAware Approximate
12:55 33.7645 -82.4724 283° West  Level FlightAware Approximate
12:56 33.7760 -82.5207 287° West  Level FlightAware Approximate
12:57 33.7881 -82.5689 287° West  Level FlightAware Approximate
12:58 33.8001 -82.6171 279° West  Level FlightAware Approximate
12:59 33.8063 -82.6669 279° West  Level FlightAware Approximate
13:00 33.8125 -82.7167 279° West  Level FlightAware Approximate
13:01 33.8203 -82.7661 285° West  Level FlightAware Approximate
13:02 33.8311 -82.8147 285° West  Level FlightAware Approximate
13:02 33.8000 -82.7167 289° West 156 180 8,100  Level Atlanta TRACON
13:03 33.8419 -82.8633 285° West  Level FlightAware Approximate
13:03 33.8000 -82.7667 270° West 157 181 8,100  Level Atlanta TRACON
13:04 33.8530 -82.9119 287° West  Level FlightAware Approximate
13:04 33.8167 -82.8167 292° West 160 184 8,100  Level Atlanta TRACON
13:05 33.8650 -82.9601 287° West  Level FlightAware Approximate
13:05 33.8333 -82.8833 287° West 163 188 8,100  Level Atlanta TRACON
13:06 33.8784 -83.0078 289° West  Level FlightAware Approximate
13:06 33.8500 -82.9333 292° West 162 186 8,100  Level Atlanta TRACON
13:07 33.8921 -83.0555 289° West  Level FlightAware Approximate
13:07 33.8667 -82.9667 301° West 160 184 8,100  Level Atlanta TRACON
13:08 33.8667 -83.0333 270° West 159 183 8,100 -240 Level Atlanta TRACON
13:09 33.8667 -83.0833 270° West 170 196 7,700 -480 Descending Atlanta TRACON
13:10 33.8667 -83.1500 270° West 175 201 7,100 -600 Descending Atlanta TRACON
13:11 33.8667 -83.2000 270° West 175 201 6,500 -540 Descending Atlanta TRACON
13:12 33.8667 -83.2667 270° West 178 205 6,100 -240 Descending Atlanta TRACON
13:13 33.8667 -83.3167 270° West 163 188 6,100  Level Atlanta TRACON
13:14 33.8667 -83.3667 270° West 161 185 6,100  Level Atlanta TRACON
13:15 33.8667 -83.4333 270° West 160 184 6,100  Level Atlanta TRACON
13:16 33.8667 -83.4833 270° West 158 182 6,100  Level Atlanta TRACON
13:17 33.8667 -83.5333 270° West 157 181 6,100  Level Atlanta TRACON
13:18 33.8667 -83.5833 270° West 155 178 6,100 -120 Level Atlanta TRACON
13:19 33.8667 -83.6333 270° West 159 183 5,900 -300 Descending Atlanta TRACON
13:20 33.8667 -83.6833 270° West 173 199 5,500 -540 Descending Atlanta TRACON
13:21 33.8833 -83.7500 287° West 180 207 5,000 -540 Descending Atlanta TRACON
13:22 33.8833 -83.8000 270° West 177 204 4,500 -480 Descending Atlanta TRACON
13:23 33.9000 -83.8667 287° West 165 190 4,100 -240 Descending Atlanta TRACON
13:24 33.9000 -83.9167 270° West 149 171 4,100  Level Atlanta TRACON
13:26 33.9167 -84.0167 281° West 150 173 4,100  Level Atlanta TRACON
13:27 33.9333 -84.0667 292° West 144 166 4,100 -300 Level Atlanta TRACON
13:28 33.9333 -84.1167 270° West 158 182 3,600 -540 Descending Atlanta TRACON
13:29 33.9500 -84.1667 292° West 165 190 3,100 -360 Descending Atlanta TRACON
13:30 33.9500 -84.2000 270° West 157 181 3,000 -240 Descending Atlanta TRACON
13:31 33.9500 -84.2500 270° West 145 167 2,700 -540 Descending Atlanta TRACON
13:32 33.9167 -84.2833 220° Southwest 125 144 2,000 -600 Descending Atlanta TRACON
13:33 33.9000 -84.3000 220° Southwest 101 116 1,500 -540 Descending Atlanta TRACON
13:35 33.8756 -84.3020 270° West  Level Estimated
13:42 33.8756 -84.3020 270° West  Level Estimated